< < Back
Terminal Aerodrome Forecast


Current Version              Previous Versions:   1  2  3  4  5  6  7  8  9  

Terminal Aerodrome Forecast

529
FTUS42 KGSP 180526
TAFHKY
TAF
KHKY 180526Z 1806/1906 33003KT P6SM FEW170 SCT250
     FM181400 04004KT P6SM BKN090
     FM181600 13004KT P6SM BKN070
     FM181900 22005KT P6SM BKN070
     FM190200 00000KT P6SM SCT060=



Latest METAR

135
SAUS70 KWBC 190756
MTRHKY
METAR KHKY 190753Z AUTO 00000KT 10SM CLR 03/M01 A3008 RMK AO2 SLP180
T00331006


USA.gov is the U.S. government's official web portal to all federal, state and local government web resources and services.